Welcome to the New NWS' Forecast!
Most changes are behind the scenes, but click here for differences you might notice.
Latest weather observations around

Demopolis Municipal Airport (KDYA)

Using International System of Units (Switch to English Units)
Date/ Time (CDT) Wind (kph) Vis. (km) Weather Sky Cond. Temp (°C) Rel. Humidity Wind Chill (°C) Heat Index (°C) Pressure Precip. (cm)
Air Dwpt 6 hour Altimeter (hPa) Sea level (hPa) 1 hr 3 hr 6 hr
Max Min
Oct 16 07:55 NW 5 6.44 Fog/Mist OVC007 18 17     99%     1021        
Oct 16 07:35 Calm 11.27 Cloudy OVC007 18 18     99%     1020.7        
Oct 16 07:15 NNW 5 11.27 Cloudy OVC007 18 18     99%     1020.7        
Oct 16 06:55 NW 5 8.05 Fog/Mist OVC007 18 18     99%     1020.7        
Oct 16 06:35 NNW 9 11.27 Cloudy OVC007 18 18     98%     1020.7        
Oct 16 06:15 NNW 11 11.27 Cloudy OVC007 18 18     97%     1020.7        
Oct 16 05:55 NW 8 11.27 Cloudy OVC007 19 18     96%     1020.3        
Oct 16 05:35 NNW 11 8.05 Fog/Mist OVC007 19 18     97%     1020        
Oct 16 05:15 NNW 8 11.27 Cloudy OVC007 19 18     98%     1020        
Oct 16 04:55 NNW 8 11.27 Cloudy OVC007 19 19     97%     1020        
Oct 16 04:35 NW 8 11.27 Cloudy OVC007 19 19     97%     1019.7        
Oct 16 04:15 NW 9 11.27 Cloudy OVC007 19 19     97%     1019.7        
Oct 16 03:55 NNW 11 8.05 Fog/Mist OVC007 20 19     97%     1019.7        
Oct 16 03:35 NW 5 11.27 Cloudy OVC007 20 19     96%     1019.7        
Oct 16 03:15 NNW 11 11.27 Cloudy OVC007 20 20     99%     1019.7        
Oct 16 02:55 NNW 8 11.27 Cloudy OVC007 20 20     98%     1019.7        
Oct 16 02:35 NNW 9 11.27 Cloudy OVC007 21 21     100%     1019.7        
Oct 16 02:15 NW 5 11.27 Cloudy OVC007 21 21     100%     1019.7        
Oct 16 01:55 NNW 8 11.27 Mostly Cloudy BKN007 BKN090 21 21     100%     1019.3        
Oct 16 01:35 N 5 11.27 Partly Cloudy SCT090 SCT110 21 21     100%   22 1019.3        
Oct 16 01:15 NW 5 11.27 Cloudy OVC090 22 22     100%   23 1019.7        
Oct 16 00:55 NW 5 11.27 Cloudy OVC090 22 22     100%   23 1019.7        
Oct 16 00:35 Calm 16.09 Cloudy OVC090 22 22     100%   23 1019.7        
Oct 16 00:15 WNW 5 11.27 Cloudy OVC090 22 22     100%   23 1019.7        
Notice The following observation data may not be complete
Oct 15 23:55 Calm 11.27 Cloudy OVC090          %     1019.7        
Notice The following observation data may not be complete
Oct 15 23:35 NW 5 11.27 Cloudy OVC090          %     1019.3        
Notice The following observation data may not be complete
Oct 15 23:15 Calm 11.27 Cloudy OVC090          %     1019.3        
Notice The following observation data may not be complete
Oct 15 22:55 Calm 4.83 Fog/Mist OVC090          %     1019.7        
Notice The following observation data may not be complete
Oct 15 22:35 Calm 6.44 Haze OVC090          %     1020        
Notice The following observation data may not be complete
Oct 15 22:15 Calm 6.44 Fog/Mist OVC090          %     1020        
Oct 15 21:55 Calm 8.05 Fog/Mist BKN090 23 23     100%   24 1020        
Oct 15 21:35 Calm 8.05 Fog/Mist SCT090 23 23     100%   24 1019.3        
Oct 15 21:15 Calm 11.27 Cloudy SCT008 OVC090 23 23     99%   24 1019.7        
Oct 15 20:55 W 5 11.27 Cloudy BKN080 OVC100 23 23     99%   24 1020        
Oct 15 20:35 Calm 16.09 Light Rain SCT050 SCT065 OVC080 23 23     100%   24 1019.3        
Oct 15 20:15 SE 5 8.05 Rain SCT050 BKN065 OVC090 23 23     98%   24 1019.3        
Oct 15 19:55 SSW 8 16.09 Rain BKN065 BKN080 OVC100 24 23     91%   25 1019        
Oct 15 19:35 Calm 16.09 Cloudy OVC055 24 24     100%   25 1019        
Notice The following observation data may not be complete
Oct 15 19:15 Calm 16.09 Cloudy OVC055          %     1019        
Oct 15 18:55 Calm 16.09 Light Rain OVC065 24 22     86%   25 1018.3        
Oct 15 18:35 Calm 16.09 Mostly Cloudy SCT050 BKN065 BKN080 25 22     84%   25 1018.3        
Oct 15 18:15 Calm 11.27 Partly Cloudy SCT070 25 22     82%   25 1018        
Oct 15 17:55 Calm 11.27 Clear CLR 25 21     79%   26 1017.6        
Oct 15 17:35 Calm 16.09 Partly Cloudy SCT044 SCT050 26 21     71%   28 1017.6        
Oct 15 14:55 N 5 11.27 Cloudy SCT032 BKN060 OVC080 29 21     61%   31 1017.3        
Oct 15 14:35 WNW 9 16.09 Mostly Cloudy BKN047 BKN060 29 20     60%   30 1017.6        
Oct 15 14:15 NW 8 11.27 Mostly Cloudy SCT035 BKN045 BKN055 30 21     58%   32 1017.6        
Oct 15 13:55 W 11 16.09 Partly Cloudy SCT038 SCT080 30 20     56%   32 1018        
Oct 15 13:35 Calm 11.27 Partly Cloudy SCT029 SCT035 SCT070 29 21     60%   31 1018        
Oct 15 13:15 WNW 11 11.27 Mostly Cloudy SCT029 BKN037 BKN070 29 21     63%   31 1018.3        
Oct 15 12:55 WNW 11 11.27 Partly Cloudy SCT029 SCT035 29 21     60%   32 1018.6        
Oct 15 12:35 WSW 11 11.27 Partly Cloudy SCT024 28 21     65%   30 1018.6        
Oct 15 12:15 SW 8 11.27 Mostly Cloudy BKN024 29 21     63%   31 1019        
Oct 15 11:55 SSW 9 11.27 Mostly Cloudy BKN024 BKN055 28 21     65%   31 1019        
Oct 15 11:35 SSW 9 11.27 Cloudy SCT018 SCT040 OVC055 27 21     72%   29 1019        
Oct 15 11:15 Calm 11.27 Cloudy SCT020 BKN048 OVC055 26 22     77%   27 1019.3        
Oct 15 10:55 SSW 8 11.27 Cloudy SCT013 BKN041 OVC050 26 22     79%   26 1019.7        
Oct 15 10:35 SW 11 11.27 Cloudy BKN011 BKN017 OVC043 25 22     82%   26 1019.7        
Oct 15 10:15 Calm 11.27 Cloudy SCT011 BKN021 OVC043 25 22     84%   25 1019.7        
Oct 15 09:55 Calm 11.27 Cloudy SCT006 OVC021 24 22     90%   24 1019.3        
Oct 15 09:35 Calm 8.05 Fog/Mist OVC006 23 22     93%   24 1019.3        
Oct 15 09:15 Calm 8.05 Fog/Mist OVC004 22 22     100%   23 1019.3        
Notice The following observation data may not be complete
Oct 15 08:55 Calm 8.05 Haze OVC006          %     1019        
Notice The following observation data may not be complete
Oct 15 08:35 Calm 8.05 Haze OVC008          %     1019        
Notice The following observation data may not be complete
Oct 15 08:15 Calm 6.44 Haze BKN010 OVC035          %     1018.6        
Notice The following observation data may not be complete
Oct 15 07:55 Calm 4.83 Fog/Mist SCT012 BKN028 OVC035          %     1018.3        
Notice The following observation data may not be complete
Oct 15 07:35 Calm 6.44 Haze BKN014 BKN019 BKN028          %     1018.3        
Notice The following observation data may not be complete
Oct 15 07:15 Calm 8.05 Haze SCT010 BKN016 OVC029          %     1018        
Notice The following observation data may not be complete
Oct 15 06:55 Calm 6.44 Haze BKN013 BKN019 BKN027          %     1018        
Notice The following observation data may not be complete
Oct 15 06:35 Calm 8.05 Haze BKN015 OVC027          %     1017.6        
Notice The following observation data may not be complete
Oct 15 06:15 Calm 6.44 Haze BKN017          %     1017.6        
Notice The following observation data may not be complete
Oct 15 05:55 Calm 6.44 Haze CLR          %     1017.3        
Notice The following observation data may not be complete
Oct 15 05:35 Calm 11.27 Partly Cloudy SCT019          %     1017.3        
Notice The following observation data may not be complete
Oct 15 05:15 Calm 4.83 Fog/Mist CLR          %     1017.3        
Notice The following observation data may not be complete
Oct 15 04:55 Calm 8.05 Haze CLR          %     1016.9        
Notice The following observation data may not be complete
Oct 15 04:35 Calm 8.05 Haze CLR          %     1016.9        
Notice The following observation data may not be complete
Oct 15 04:15 Calm 6.44 Haze CLR          %     1016.9        
Notice The following observation data may not be complete
Oct 15 03:55 Calm 8.05 Haze CLR          %     1016.9        
Notice The following observation data may not be complete
Oct 15 03:35 Calm 8.05 Haze CLR          %     1016.9        
Notice The following observation data may not be complete
Oct 15 03:15 Calm 8.05 Haze CLR          %     1017.3        
Notice The following observation data may not be complete
Oct 15 02:55 Calm 6.44 Haze CLR          %     1017.3        
Notice The following observation data may not be complete
Oct 15 02:35 Calm 8.05 Haze CLR          %     1017.3        
Notice The following observation data may not be complete
Oct 15 02:15 Calm 11.27 Clear CLR          %     1017.3        
Notice The following observation data may not be complete
Oct 15 01:55 Calm 8.05 Haze CLR          %     1017.3        
Notice The following observation data may not be complete
Oct 15 01:35 Calm 6.44 Fog/Mist CLR          %     1017.3        
Oct 15 01:15 Calm 8.05 Fog/Mist CLR 19 19     100%     1017.3        
Oct 15 00:55 Calm 8.05 Fog/Mist CLR 19 19     100%     1017.3        
Oct 15 00:35 Calm 11.27 Clear   20 20     100%     1016.9        
Oct 15 00:15 Calm 11.27 Clear   20 19     97%     1017.3        
Oct 14 23:55 Calm 16.09 Clear   20 20     97%     1017.3        
Oct 14 23:35 Calm 16.09 Clear CLR 21 20     94%     1017.3        
Oct 14 23:15 SE 5 11.27 Clear CLR 21 20     92%     1017.3        
Oct 14 22:55 SE 5 16.09 Clear CLR 21 19     92%     1017.3        
Oct 14 22:35 Calm 11.27 Clear CLR 21 19     93%     1016.9        
Oct 14 22:15 Calm 11.27 Clear CLR 19 19     98%     1016.9        
Oct 14 21:55 Calm 11.27 Clear CLR 20 19     98%     1016.9        
Oct 14 21:35 Calm 16.09 Clear CLR 20 19     95%     1016.9        
Oct 14 21:15 Calm 16.09 Clear CLR 20 19     96%     1016.6        
Oct 14 20:55 Calm 11.27 Clear CLR 20 20     96%     1016.6        
Oct 14 20:35 Calm 16.09 Clear CLR 21 20     94%     1016.3        
Oct 14 20:15 Calm 16.09 Clear CLR 20 20     97%     1015.9        
Oct 14 19:55 Calm 16.09 Clear CLR 21 20     93%     1015.6        
Oct 14 19:35 Calm 11.27 Clear CLR 21 20     97%     1015.6        
Oct 14 19:15 Calm 16.09 Clear CLR 21 20     95%   22 1015.6        
Oct 14 18:55 Calm 16.09 Partly Cloudy SCT120 22 21     92%   23 1015.6        
Oct 14 18:35 Calm 16.09 Partly Cloudy SCT120 23 21     89%   23 1015.2        
Oct 14 18:15 Calm 11.27 Partly Cloudy SCT120 24 21     81%   25 1015.2        
Oct 14 17:55 Calm 16.09 Partly Cloudy SCT120 25 21     76%   26 1014.9        
Oct 14 17:35 Calm 11.27 Clear CLR 27 19     63%   28 1014.9        
Oct 14 17:15 Calm 11.27 Clear CLR 27 19     61%   29 1014.9        
Oct 14 16:55 SE 5 11.27 Clear CLR 28 18     55%   29 1014.9        
Oct 14 16:35 SSE 8 16.09 Partly Cloudy SCT120 29 18     51%   29 1014.9        
Oct 14 16:15 SSE 5 11.27 Clear CLR 29 17     50%   29 1014.9        
Oct 14 15:55 SSE 8 16.09 Clear CLR 29 17     49%   30 1015.2        
Oct 14 15:35 SSE 5 16.09 Clear CLR 29 17     49%   30 1015.2        
Oct 14 15:15 SE 8 8.05 Haze SCT110 30 17     47%   31 1015.2        
Oct 14 14:55 SE 9 16.09 Cloudy OVC110 30 18     47%   31 1015.2        
Oct 14 14:35 S 5 16.09 Partly Cloudy SCT110 28 17     52%   29 1015.2        
Oct 14 14:15 SSE 9 16.09 Partly Cloudy SCT120 29 17     49%   29 1015.2        
Oct 14 13:55 S 9 11.27 Mostly Cloudy BKN120 28 17     52%   29 1015.6        
Oct 14 13:35 S 8 16.09 Cloudy OVC120 29 17     50%   29 1015.6        
Oct 14 13:15 S 13 11.27 Cloudy OVC120 28 17     51%   29 1015.9        
Oct 14 12:55 SSE 11 16.09 Cloudy OVC120 28 17     51%   29 1015.9        
Oct 14 12:35 SSE 15 11.27 Partly Cloudy SCT110 28 17     51%   29 1016.3        
Oct 14 12:15 S 11 16.09 Clear CLR 28 18     55%   29 1016.3        
Oct 14 11:55 SSE 11 16.09 Clear CLR 27 18     57%   28 1016.6        
Oct 14 11:35 SSE 9 16.09 Clear CLR 27 18     58%   28 1016.9        
Oct 14 11:15 SSE 9 16.09 Clear CLR 26 17     57%   27 1017.3        
Oct 14 10:55 SSE 9 16.09 Partly Cloudy SCT120 26 17     58%   26 1016.9        
Oct 14 10:35 SE 8 16.09 Partly Cloudy SCT120 24 16     61%   24 1017.3        
Oct 14 10:15 SSE 8 16.09 Clear CLR 24 16     62%   24 1017.3        
Oct 14 09:55 Calm 16.09 Partly Cloudy SCT110 22 16     69%   22 1017.3        
Oct 14 09:35 Calm 16.09 Partly Cloudy SCT110 21 16     73%     1017.3        
Oct 14 09:15 Calm 16.09 Partly Cloudy SCT110 21 16     73%     1016.9        
Oct 14 08:55 SE 5 16.09 Mostly Cloudy BKN110 20 16     75%     1016.3        
Oct 14 08:35 SE 8 16.09 Partly Cloudy SCT120 19 15     79%     1015.9        
Oct 14 08:15 SE 9 16.09 Mostly Cloudy BKN120 18 15     83%     1015.9        
Oct 14 07:55 ESE 5 16.09 Cloudy OVC120 18 16     89%     1015.9        
Oct 14 07:35 Calm 16.09 Cloudy OVC120 17 16     95%     1015.9        
Oct 14 07:15 Calm 16.09 Cloudy OVC110 17 16     94%     1015.9        
Oct 14 06:55 Calm 16.09 Cloudy OVC110 17 16     94%     1015.9        
Oct 14 06:35 Calm 16.09 Cloudy OVC110 17 15     90%     1015.6        
Oct 14 06:15 ESE 8 16.09 Cloudy OVC110 16 16     97%     1015.2        
Oct 14 05:55 Calm 16.09 Cloudy OVC110 16 16     94%     1015.6        
Oct 14 05:35 Calm 16.09 Cloudy SCT100 OVC120 17 16     93%     1015.6        
Oct 14 05:15 Calm 16.09 Cloudy OVC110 17 15     88%     1015.6        
Oct 14 04:55 SE 5 16.09 Cloudy OVC110 17 15     87%     1014.6        
Oct 14 04:35 SE 8 16.09 Cloudy OVC100 17 15     90%     1014.9        
Oct 14 04:15 SE 5 16.09 Mostly Cloudy BKN100 16 15     94%     1014.6        
Oct 14 03:55 Calm 16.09 Partly Cloudy SCT100 16 15     96%     1014.6        
Oct 14 03:35 Calm 16.09 Clear CLR 16 15     93%     1014.9        
Oct 14 03:15 SE 5 16.09 Clear CLR 16 15     91%     1014.6        
Oct 14 02:55 ESE 8 16.09 Clear CLR 16 15     96%     1014.6        
Oct 14 02:35 Calm 16.09 Clear CLR 16 15     97%     1014.9        
Oct 14 02:15 Calm 16.09 Clear CLR 16 15     95%     1014.6        
Oct 14 01:55 Calm 16.09 Partly Cloudy SCT100 17 16     91%     1014.6        
Oct 14 01:35 Calm 16.09 Clear CLR 17 16     94%     1014.2        
Oct 14 01:15 Calm 16.09 Clear CLR 17 16     94%     1013.9        
Oct 14 00:55 Calm 16.09 Clear CLR 17 16     94%     1014.2        
Oct 14 00:35 Calm 16.09 Clear CLR 17 16     95%     1013.9        
Oct 14 00:15 Calm 16.09 Clear CLR 17 16     93%     1013.9        
Oct 13 23:55 Calm 16.09 Clear CLR 17 15     91%     1014.6        
Oct 13 23:35 N 5 16.09 Clear CLR 17 15     89%     1014.6        
Oct 13 23:15 Calm 16.09 Clear CLR 18 15     85%     1014.6        
Oct 13 22:55 Calm 16.09 Clear CLR 18 15     81%     1014.2        
Oct 13 22:35 SE 9 16.09 Partly Cloudy SCT100 16 16     97%     1013.9        
Oct 13 22:15 Calm 16.09 Partly Cloudy SCT100 17 16     96%     1015.2        
Oct 13 21:55 Calm 16.09 Clear CLR 16 16     98%     1014.6        
Oct 13 21:35 Calm 16.09 Clear CLR 17 16     97%     1014.9        
Oct 13 21:15 Calm 16.09 Clear CLR 16 16     97%     1014.9        
Oct 13 20:55 Calm 16.09 Clear CLR 17 16     96%     1014.9        
Oct 13 20:35 Calm 16.09 Clear CLR 17 16     97%     1014.6        
Oct 13 20:15 ESE 5 16.09 Clear CLR 17 16     94%     1014.6        
Oct 13 19:55 Calm 16.09 Clear CLR 18 16     92%     1014.6        
Oct 13 19:35 Calm 16.09 Clear CLR 18 16     90%     1014.2        
Oct 13 19:15 Calm 16.09 Clear CLR 18 16     88%     1013.9        
Oct 13 18:55 Calm 16.09 Clear CLR 19 16     85%     1013.9        
Oct 13 18:35 Calm 16.09 Clear CLR 20 16     80%     1013.6        
Oct 13 18:15 Calm 16.09 Clear CLR 22 16     68%   22 1013.6        
Oct 13 17:55 Calm 16.09 Clear CLR 24 15     54%   24 1013.2        
Oct 13 17:35 Calm 16.09 Clear CLR 25 12     46%   25 1012.9        
Oct 13 17:15 SSE 5 16.09 Clear CLR 25 12     45%   25 1012.9        
Oct 13 16:55 S 5 16.09 Clear CLR 25 12     44%   25 1013.2        
Oct 13 16:35 SSE 5 16.09 Clear CLR 26 12     43%   25 1013.2        
Oct 13 16:15 SSE 5 16.09 Clear CLR 26 12     43%   25 1013.2        
Oct 13 15:55 Calm 16.09 Clear CLR 26 11     41%   25 1013.6        
Oct 13 15:35 Calm 16.09 Clear CLR 26 11     40%   26 1013.6        
Oct 13 15:15 Calm 16.09 Clear CLR 26 11     40%   25 1013.6        
Oct 13 14:55 Calm 16.09 Clear CLR 25 11     42%   25 1013.9        
Oct 13 14:35 S 8 16.09 Clear CLR 26 12     42%   25 1013.9        
Oct 13 14:15 Calm 16.09 Clear CLR 25 11     43%   25 1014.2        
Oct 13 13:55 W 11 16.09 Clear CLR 25 11     41%   25 1014.6        
Oct 13 13:35 ESE 8 16.09 Clear CLR 25 12     43%   24 1014.9        
Oct 13 13:15 Calm 16.09 Clear CLR 24 11     43%   24 1015.2        
Oct 13 12:55 Calm 16.09 Clear CLR 24 11     42%   24 1015.6        
Oct 13 12:35 Calm 16.09 Clear CLR 24 11     43%   24 1015.6        
Oct 13 12:15 ESE 8 16.09 Clear CLR 24 11     43%   24 1015.9        
Oct 13 11:55 SSW 8 16.09 Clear CLR 23 11     46%   23 1015.9        
Oct 13 11:35 ENE 8 16.09 Clear CLR 22 10     47%   22 1016.3        
Oct 13 11:15 ESE 5 16.09 Clear CLR 23 10     45%   22 1016.3        
Oct 13 10:55 Calm 16.09 Clear CLR 22 11     51%   22 1016.3        
Oct 13 10:35 Calm 16.09 Clear CLR 21 12     54%     1016.6        
Oct 13 10:15 NNW 5 16.09 Clear CLR 20 12     59%     1016.6        
Oct 13 09:55 Calm 11.27 Clear CLR 20 12     62%     1016.3        
Oct 13 09:35 Calm 16.09 Clear CLR 19 13     69%     1016.6        
Oct 13 09:15 Calm 11.27 Clear CLR 18 13     75%     1016.6        
Oct 13 08:55 Calm 16.09 Clear CLR 17 14     84%     1016.3        
Notice The following observation data may not be complete
Oct 13 07:15 Calm 11.27 Clear CLR          %     1015.9        
Notice The following observation data may not be complete
Oct 13 05:35 Calm 16.09 Partly Cloudy SCT060          %     1015.2        
Notice The following observation data may not be complete
Oct 13 05:15 Calm 16.09 Partly Cloudy SCT060          %     1014.9        
Notice The following observation data may not be complete
Oct 13 04:55 Calm 16.09 Clear CLR          %     1014.6        
Notice The following observation data may not be complete
Oct 13 03:35   11.27 Clear CLR          %              
Notice The following observation data may not be complete
Oct 13 01:15 Calm 11.27 Clear CLR          %     1013.6        
Oct 13 00:15 Calm 11.27 Cloudy OVC090 15 15     100%     1013.9        
Oct 12 23:55 Calm 11.27 Cloudy OVC100 14 14     100%     1013.9        
Oct 12 23:35 Calm 16.09 Mostly Cloudy BKN090 15 15     100%     1013.9        
Oct 12 22:35 Calm 11.27 Mostly Cloudy BKN110 15 15     100%     1014.2        
Oct 12 19:35 Calm 16.09 Clear CLR 16 14     92%     1013.6        
Oct 12 18:55 Calm 11.27 Clear CLR 16 14     88%     1013.2        
Oct 12 18:35 Calm 11.27 Clear CLR 18 15     83%     1013.2        
Oct 12 17:35 Calm 8.05 Haze CLR 23 9     40%   23 1012.5        
Oct 12 15:35 W 11 16.09 Clear CLR 24 9     37%   24 1013.6        
Oct 12 10:35 Calm 11.27 Clear CLR 17 9     58%     1017.3        
Oct 12 10:15 E 8 11.27 Clear CLR 17 9     60%     1017.3        
Notice The following observation data may not be complete
Oct 12 08:35   16.09 Clear CLR          %              
Oct 12 07:55 Calm 11.27 Clear CLR 11 10     93%     1016.9        
Notice The following observation data may not be complete
Oct 12 07:35   16.09 Clear CLR          %              
Oct 12 06:55 Calm 11.27 Clear CLR 11 10     93%     1016.9        
Oct 12 06:15 NW 8 16.09 Clear CLR 11 10     91%     1016.6        
Oct 12 05:15 Calm 11.27 Clear CLR 11 10     91%     1016.3        
Oct 12 02:35 Calm 11.27 Clear CLR 13 10     85%     1016.6        
Oct 12 02:15 NNW 5 11.27 Clear CLR 14 11     82%     1016.6        
Oct 12 01:35 NNW 8 16.09 Clear CLR 14 11     81%     1016.6        
Oct 12 01:15 NNW 8 11.27 Clear CLR 14 11     82%     1016.6        
Oct 11 23:35 NNW 8 16.09 Clear   15 12     81%     1016.6        
Oct 11 23:15 NNW 9 16.09 Clear   16 12     79%     1016.6        
Oct 11 22:55 NNW 9 11.27 Clear   16 12     78%     1016.3        
Notice The following observation data may not be complete
Oct 11 22:35   16.09 Clear CLR          %              
Oct 11 22:15 NNW 8 16.09 Clear CLR 17 12     74%     1016.3        
Oct 11 21:35 NNW 5 16.09 Clear CLR 17 12     71%     1015.6        
Oct 11 21:15 NW 5 11.27 Clear CLR 17 12     73%     1015.2        
Oct 11 19:15 Calm 16.09 Clear CLR 19 13     66%     1014.2        
Oct 11 17:15 WNW 15 16.09 Clear CLR 23 11     47%   23 1013.6        
Notice The following observation data may not be complete
Oct 11 15:35   16.09 Clear CLR          %              
Oct 11 13:35 WNW 17 16.09 Clear CLR 24 13     48%   24 1013.9        
Notice The following observation data may not be complete
Oct 11 12:35   16.09 Clear CLR          %              
Oct 11 11:35 WNW 13 16.09 Clear CLR 22 14     59%   22 1014.6        
Oct 11 11:15 NW 13 11.27 Clear CLR 22 14     60%   22 1014.9        
Oct 11 09:55 WNW 17 11.27 Partly Cloudy SCT018 20 15     71%     1014.6        
May 15 06:15 Calm 11.27 Clear   18 17     94%     1013.9        
May 14 20:15 Calm 16.09 Clear   24 20     76%   25 1012.9        
May 14 06:35 Calm 6.44 Fog/Mist CLR 17 17     100%     1016.6        
May 14 05:35 Calm 11.27 Clear   17 17     99%     1016.6        
May 14 00:35 Calm 11.27 Clear CLR 19 18     92%     1017.3        
May 13 20:35 Calm 16.09 Clear CLR 23 20     84%   23 1016.6        
May 13 20:15 Calm 16.09 Clear CLR 24 20     81%   24 1016.3        
May 13 18:55 Calm 16.09 Clear CLR 29 21     59%   32 1016.3        
May 13 17:15 NNE 5 16.09 Clear CLR 33 15     34%   32 1016.6        
May 13 16:35 ENE 5 16.09 Clear CLR 33 14     33%   32 1016.6        
May 13 13:35 N 5 16.09 Partly Cloudy SCT060 32 15     36%   32 1019        
May 13 12:15 N 8 16.09 Clear   31 15     39%   31 1020        
May 13 10:35 NNW 9 16.09 Clear CLR 29 17     48%   29 1020.7        
May 13 09:55 NW 8 16.09 Clear CLR 27 18     56%   28 1020.7        
May 13 08:15 Calm 16.09 Clear CLR 22 18     76%   23 1020.3        
May 13 06:35 Calm 8.05 Fog/Mist CLR 16 15     97%     1019.3        
May 13 02:15 Calm 16.09 Clear CLR 17 16     93%     1017.6        
May 12 21:35 Calm 16.09 Clear CLR 21 18     85%     1018.6        
Notice The following observation data may not be complete
May 12 20:15 Calm 16.09 Clear CLR   19      %     1018        
Notice The following observation data may not be complete
May 12 19:55 Calm 16.09 Clear CLR   19      %     1017.6        
May 12 16:55 SSW 8 16.09 Clear CLR 32 11     28%   31 1018        
May 12 15:35 Calm 16.09 Clear CLR 32        %     1018.6        
May 12 06:35 Calm 16.09 Clear CLR 13 12     94%     1020.7        
May 12 02:55 Calm 16.09 Clear CLR 14 13     90%     1018.3        
Notice The following observation data may not be complete
May 12 01:15 Calm 16.09 Clear CLR   13      %     1018.3        
May 11 20:55 Calm 16.09 Clear CLR 21 18     83%     1018        
Jun 11 23:15 SE 8 16.09 Clear   24 24     100%   25 1019.3        
Notice The following observation data may not be complete
Jun 11 20:35   16.09 Clear            %              
Jun 11 20:15 N 5 16.09 Clear   23 23     100%   25 1018        
Notice The following observation data may not be complete
Jun 11 19:35   16.09 Clear            %              
Jun 11 13:55 S 5 16.09 Clear   32 18     44%   33 1019        
Notice The following observation data may not be complete
Jun 11 05:15   16.09 Clear            %              
Jun 11 02:15 Calm 16.09 Clear   19 19     99%     1017.3        
Jun 11 00:35 Calm 16.09 Clear   20 19     96%     1017.6        
Jun 10 22:15 Calm 16.09 Clear   21 19     87%   22 1017.6        
Notice The following observation data may not be complete
Jun 10 20:35 Calm 16.09 Clear     19      %     1016.3        
Jun 10 17:55 SE 9 16.09 Clear   31 16     40%   31 1015.6        
Notice The following observation data may not be complete
Jun 10 15:15   16.09 Clear            %              
Jun 10 12:35 SSE 13 16.09 Clear   29 16     44%   29 1018        
Notice The following observation data may not be complete
Jun 10 11:15   16.09 Clear            %              
Jun 10 07:35 Calm 16.09 Clear   20 18     93%     1016.9        
Notice The following observation data may not be complete
Jun 10 03:55 Calm 16.09 Clear            %     1015.2        
Jun 09 22:35 Calm 16.09 Clear   18 18     98%     1014.9        
Jun 08 06:55 Calm 16.09 Clear   16 15     93%     1012.9        
Notice The following observation data may not be complete
Jun 08 06:35   16.09 Clear            %              
Notice The following observation data may not be complete
Jun 07 18:35   16.09 Clear            %              
Jun 07 14:55 N 17 16.09 Clear   28 15     43%   28 1009.2        
Notice The following observation data may not be complete
Jun 07 10:15   16.09 Clear            %              
Jun 06 14:35 NE 17 16.09 Clear   24 20     77%   25 1007.1        
Jun 06 13:35 NW 9 16.09 Clear   27 21     70%   30 1006.8        
Jun 06 10:15 NNW 8 16.09 Clear   25 23     88%   26 1008.1        
Jun 06 09:55 N 5 16.09 Clear   24 23     92%   25 1008.1        
Jun 05 16:35 WSW 5 16.09 Clear   26 21     78%   26 1007.5